This is the latest recevied weather packets stored in our database for station/object W1MDM-10. If no packets are shown the sender has not sent any weather packets the latest 10 day(s).
| Time | Temp. | Humidity | Pressure | Rain* | Wind** | Luminosity | Snow |
|---|---|---|---|---|---|---|---|
| 1788210038 | 36.11° C | 51% | 1013 hPa | 0 mm | - | - | - |
| 1788209738 | 35.56° C | 51% | 1013 hPa | 0 mm | - | - | - |
| 1788209438 | 35° C | 51% | 1013.1 hPa | 0 mm | - | - | - |
| 1788209138 | 34.44° C | 53% | 1013.2 hPa | 0 mm | - | - | - |
| 1788208838 | 35° C | 51% | 1013.3 hPa | 0 mm | - | - | - |
| 1788208538 | 35.56° C | 50% | 1013.5 hPa | 0 mm | - | - | - |
| 1788208238 | 36.67° C | 50% | 1013.6 hPa | 0 mm | - | - | - |
| 1788207938 | 36.11° C | 52% | 1013.6 hPa | 0 mm | - | - | - |
| 1788207638 | 35.56° C | 52% | 1013.8 hPa | 0 mm | - | - | - |
| 1788207338 | 35.56° C | 50% | 1013.8 hPa | 0 mm | - | - | - |
| 1788207038 | 35.56° C | 50% | 1013.9 hPa | 0 mm | - | - | - |
| 1788206738 | 36.11° C | 51% | 1014 hPa | 0 mm | - | - | - |
| 1788206438 | 36.11° C | 51% | 1014.1 hPa | 0 mm | - | - | - |
| 1788206138 | 35.56° C | 53% | 1014.2 hPa | 0 mm | - | - | - |
| 1788205838 | 35.56° C | 52% | 1014.3 hPa | 0 mm | - | - | - |
| 1788205538 | 35.56° C | 51% | 1014.4 hPa | 0 mm | - | - | - |
| 1788205238 | 35.56° C | 52% | 1014.3 hPa | 0 mm | - | - | - |
| 1788204939 | 35.56° C | 52% | 1014.4 hPa | 0 mm | - | - | - |
| 1788204638 | 35.56° C | 52% | 1014.6 hPa | 0 mm | - | - | - |
| 1788204338 | 35.56° C | 54% | 1014.7 hPa | 0 mm | - | - | - |
| 1788204038 | 35° C | 55% | 1014.7 hPa | 0 mm | - | - | - |
| 1788203738 | 35° C | 56% | 1014.8 hPa | 0 mm | - | - | - |
| 1788203439 | 34.44° C | 55% | 1014.9 hPa | 0 mm | - | - | - |
| 1788203138 | 34.44° C | 55% | 1015 hPa | 0 mm | - | - | - |
| 1788202838 | 34.44° C | 57% | 1015 hPa | 0 mm | - | - | - |
* Rain latest hour (hover to see other rain measurements)
** Current wind speed in m/s (hover to see current wind gust speed)